COSMOS 252 DEB *, 5322

Orbit data source: Space-Track

COSMOS 252 DEB *, 5322 is space debris in LEO originally from a launch on Fri, 01 Nov 1968 UTC launched from the Tyuratam Missile And Space Complex (TTMTR). Debris objects in space refer to the collection of defunct objects orbiting the Earth. Examples of debris include non-operational satellites, rocket bodies, and fragments generated from explosions, collisions, or faulty payload assembly.

Loading next visibility...
Identifier
5322, 1968-097CJ
Orbit
LEO
Country
Flag of CISCIS
Related business
Manufacturer
Unknown
Mission
Spacecraft
Bus & Motor
Unknown
Mass
Unknown
Launch date (UTC)
1968-11-01 (57 years ago)
Launch vehicle
Unknown
Launch site
Tyuratam Missile And Space Complex (TTMTR)
Object type
Payload
Rocket body
Debris
Shape & HBR
Unknown shape, 0.1 m
Radar Cross Section
Small (<0.1 m²)

Expand to show TLE details & history
Last TLE update: 15 hours ago

TLE from 15 hours ago
0 COSMOS 252 DEB *
1  5322U 68097CJ  26121.94271958  .00001337  00000-0  99174-3 0  9996
2  5322  61.3241 199.5903 0686810 289.6051  63.2081 13.21238714707722
Epoch: 2026-05-01T22:37Z
TLE epoch observation values (Epoch: 2026-05-01T22:37:30.971Z)
Latitude
-0.00005°
Longitude
0.3435°
Altitude
977.288 km
Speed
7.462 km/s
True Right ascension
13h 18m 21s
True Declination
0° 00' 00"
Sunlit
Object was in full shadow at epoch
Visualization orbit readout
Latitude
Unknown
Longitude
Unknown
Altitude
Unknown
Speed
Unknown
Apparent Right ascension
Unknown
Apparent Declination
Unknown
Sunlit
N/A
Visualization observer readout
Local Sidereal Time
21:07:56
Azimuth
Unknown
Elevation
Unknown
Doppler factor
Unknown
Orbital elements
Apogee altitude
1,698.128 km
Perigee altitude
660.052 km
Semi-major axis
7,557.227 km
Eccentricity
0.06868
Inclination
61.3241°
RAAN
199.5903°
Arg. of periapsis
289.6051°
True anomaly
70.49602°
Mean anomaly
63.2081°
Eccentric anomaly
66.82571°
Mean motion
3.30369 °/min
Orbital period
108.97 mins
BSTAR
0.00099174
Loading maneuver chart data...
Computing Atmospheric mass density...
Loading historical data...
Loading historical data...
Loading historical data...
Loading historical data...
Loading historical data...
Loading historical data...
Loading historical data...

Documentation

Showing up to 5 results
|